SCP
0 0 0 0 0 0 0 0 0 0 0 0 0 0 0 0 0 0 0 0 0 0 0 0 0 0 0 0 0 0 0 0 0 0 0 0 0 0 0 0 0 0 0
0 0 0 0 0 0 0 0 0 0 0 0 0 0 0 0 0 0 0 0 0 0 0 0 0 0 0 0 0 0 0 0 0 0 0 0 0 0 0 0 0 0 0
0 0 0 0 0 0 0 0 0 0 0 0 0 0 0 0 0 0 0 0 0 0 0 0 0 0 0 0 0 0 0 0 0 0 0 0 0 0 0 0 0 0 0
0 0 0 0 0 0 0 0 0 0 0 0 0 0 0 0 0 0 0 0 0 0 0 0 0 0 0 0 0 0 0 0 0 0 0 0 0 0 0 0 0 0 0
0 0 0 0 0 0 0 0 0 0 0 0 0 0 0 0 0 0 0 0 0 0 0 0 0 0 0 0 0 0 0 0 0 0 0 0 0 0 0 0 0 0 0
0 0 0 0 0 0 0 0 0 0 0 0 0 0 0 0 0 0 0 0 0 0 0 0 0 0 0 0 0 0 0 0 0 0 0 0 0 0 0 0 0 0 0
0 0 0 0 0 0 0 0 0 0 0 0 0 0 0 0 0 0 0 0 0 0 0 0 0 0 0 0 0 0 0 0 0 0 0 0 0 0 0 0 0 0 0
0 0 0 0 0 0 0 0 0 0 0 0 0 0 0 0 0 0 0 0 0 0 0 0 0 0 0 0 0 0 0 0 0 0 0 0 0 0 0 0 0 0 0
0 0 0 0 0 0 0 0 0 0 0 0 0 0 0 0 0 0 0 0 0 0 0 0 0 0 0 0 0 0 0 0 0 0 0 0 0 0 0 0 0 0 0
0 0 0 0 0 0 0 0 0 0 0 0 0 0 0 0 0 0 0 0 0 0 0 0 0 0 0 0 0 0 0 0 0 0 0 0 0 0 0 0 0 0 0
0 0 0 0 0 0 0 0 0 0 0 0 0 0 0 0 0 0 0 0 0 0 0 0 0 0 0 0 0 0 0 0 0 0 0 0 0 0 0 0 0 0 0
0 0 0 0 0 0 0 0 0 0 0 0 0 0 0 0 0 0 0 0 0 0 0 0 0 0 0 0 0 0 0 0 0 0 0 0 0 0 0 0 0 0 0
0 0 0 0 0 0 0 0 0 0 0 0 0 0 0 0 0 0 0 0 0 0 0 0 0 0 0 0 0 0 0 0 0 0 0 0 0 0 0 0 0 0 0
0 0 0 0 0 0 0 0 0 0 0 0 0 0 0 0 0 0 0 0 0 0 0 0 0 0 0 0 0 0 0 0 0 0 0 0 0 0 0 0 0 0 0
0 0 0 0 0 0 0 0 0 0 0 0 0 0 0 0 0 0 0 0 0 0 0 0 0 0 0 0 0 0 0 0 0 0 0 0 0 0 0 0 0 0 0
0 0 0 0 0 0 0 0 0 0 0 0 0 0 0 0 0 0 0 0 0 0 0 0 0 0 0 0 0 0 0 0 0 0 0 0 0 0 0 0 0 0 0
0 0 0 0 0 0 0 0 0 0 0 0 0 0 0 0 0 0 0 0 0 0 0 0 0 0 0 0 0 0 0 0 0 0 0 0 0 0 0 0 0 0 0
0 0 0 0 0 0 0 0 0 0 0 0 0 0 0 0 0 0 0 0 0 0 0 0 0 0 0 0 0 0 0 0 0 0 0 0 0 0 0 0 0 0 0
0 0 0 0 0 0 0 0 0 0 0 0 0 0 0 0 0 0 0 0 0 0 0 0 0 0 0 0 0 0 0 0 0 0 0 0 0 0 0 0 0 0 0
0 0 0 0 0 0 0 0 0 0 0 0 0 0 0 0 0 0 0 0 0 0 0 0 0 0 0 0 0 0 0 0 0 0 0 0 0 0 0 0 0 0 0
0 0 0 0 0 0 0 0 0 0 0 0 0 0 0 0 0 0 0 0 0 0 0 0 0 0 0 0 0 0 0 0 0 0 0 0 0 0 0 0 0 0 0
0 0 0 0 0 0 0 0 0 0 0 0 0 0 0 0 0 0 0 0 0 0 0 0 0 0 0 0 0 0 0 0 0 0 0 0 0 0 0 0 0 0 0
0 0 0 0 0 0 0 0 0 0 0 0 0 0 0 0 0 0 0 0 0 0 0 0 0 0 0 0 0 0 0 0 0 0 0 0 0 0 0 0 0 0 0
0 0 0 0 0 0 0 0 0 0 0 0 0 0 0 0 0 0 0 0 0 0 0 0 0 0 0 0 0 0 0 0 0 0 0 0 0 0 0 0 0 0 0
0 0 0 0 0 0 0 0 0 0 0 0 0 0 0 0 0 0 0 0 0 0 0 0 0 0 0 0 0 0 0 0 0 0 0 0 0 0 0 0 0 0 0
0 0 0 0 0 0 0 0 0 0 0 0 0 0 0 0 0 0 0 0 0 0 0 0 0 0 0 0 0 0 0 0 0 0 0 0 0 0 0 0 0 0 0
Wind_Speed
9 9 8 8 7 7 7 6 6 5 3 3 3 3 4 3 3 4 4 4 3 3 1 2 2 1 2 2 1 1 2 2 2 3 3 4 4 3 3 4 4 6 7
10 10 9 8 8 7 7 6 6 5 3 3 3 2 3 2 3 3 4 3 3 2 2 2 1 1 1 1 2 2 2 1 1 3 4 3 4 4 2 2 3 4 4
12 12 11 9 9 8 7 5 5 5 4 4 4 4 3 3 3 3 3 3 3 3 3 2 2 1 1 2 2 2 2 2 1 2 4 4 2 1 3 2 1 2 2
13 12 12 11 10 9 8 7 6 5 5 4 3 3 2 2 3 1 3 3 3 3 3 2 2 2 2 2 1 2 2 2 2 0 1 3 4 4 1 2 2 2 2
14 14 13 11 10 9 8 7 7 6 5 4 4 3 3 3 3 3 4 2 3 2 2 2 2 2 2 3 3 2 3 3 3 3 2 1 2 4 4 3 2 2 2
15 14 13 12 10 10 8 8 7 6 6 5 4 3 4 3 3 3 3 2 3 2 2 2 1 1 2 2 2 2 1 2 3 4 3 3 3 3 3 4 4 3 2
15 15 14 13 12 11 10 9 8 7 6 5 5 4 4 4 4 3 3 1 2 2 3 1 1 1 1 1 2 1 3 2 2 3 3 3 3 3 4 5 4 4 3
16 15 15 14 13 13 12 11 10 8 7 6 5 4 5 4 3 2 1 1 0 2 2 0 0 1 1 1 1 2 1 1 2 3 3 4 3 3 4 5 5 6 4
16 16 16 15 14 13 13 12 11 9 8 7 6 5 4 2 2 3 3 2 1 1 2 0 0 0 1 1 3 1 2 2 3 3 3 4 3 3 4 4 5 6 7
16 16 15 15 14 13 12 12 11 10 9 8 7 6 5 4 4 3 2 1 1 1 1 1 1 1 1 1 3 3 1 3 3 3 4 5 5 4 4 4 5 5 6
17 16 15 14 14 13 13 12 11 11 9 8 7 6 6 5 5 4 3 3 2 2 2 1 1 1 2 2 2 3 3 4 4 4 4 5 5 6 6 5 5 5 6
16 16 15 15 14 14 14 13 12 11 10 9 8 7 6 6 5 5 4 3 3 3 2 2 2 2 2 2 3 4 3 4 4 5 5 6 5 5 7 6 7 6 6
15 15 15 14 14 14 13 13 12 11 10 10 9 8 7 6 5 4 4 4 3 3 3 2 3 2 2 3 3 4 4 4 5 5 5 6 6 7 6 6 7 6 6
15 15 15 14 14 13 13 13 12 12 11 10 9 8 7 6 6 5 5 4 4 4 3 3 3 3 3 3 3 4 4 5 5 5 6 6 6 7 7 7 7 7 8
16 16 16 15 14 14 13 13 12 12 11 10 9 8 8 7 6 6 6 5 4 4 4 4 4 4 4 3 3 4 5 5 6 6 6 7 5 6 7 8 7 7 7
17 17 17 16 16 15 14 13 12 12 11 11 10 9 8 8 7 7 6 6 5 4 4 5 5 5 3 3 0 6 7 6 7 7 7 7 7 8 11 11 10 10 10
17 18 17 17 16 15 14 14 13 12 12 11 10 9 9 8 8 7 7 6 6 5 5 5 5 5 3 4 4 6 8 8 7 8 8 8 6 5 8 9 13 14 15
16 16 16 16 15 15 14 13 13 12 12 11 10 10 9 9 8 8 7 7 6 6 6 6 6 6 5 6 7 6 9 9 8 8 8 8 9 7 7 9 10 10 10
15 15 15 16 15 15 14 14 13 13 12 12 11 10 10 9 9 8 8 7 6 6 7 7 7 7 6 7 8 8 8 7 8 8 8 8 9 3 3 9 11 11 10
12 13 14 14 14 14 14 14 14 13 13 12 11 10 10 9 9 8 7 7 6 7 7 7 7 8 8 6 9 9 8 7 7 7 7 8 9 5 5 9 10 11 10
12 13 14 13 14 14 14 14 13 13 12 11 10 10 10 9 9 7 7 7 7 7 7 7 7 8 8 8 10 11 8 8 8 7 7 4 9 9 9 10 11 11 10
12 13 13 12 12 14 14 13 13 12 11 10 10 10 9 9 8 8 7 7 7 8 8 8 9 8 8 8 9 12 12 10 9 9 8 4 5 8 10 10 11 10 9
11 12 13 12 12 13 13 13 12 11 11 10 10 9 9 8 7 8 8 8 8 8 7 7 7 7 5 6 10 12 13 13 10 9 8 8 7 8 11 15 15 12 10
10 11 12 12 12 12 12 11 11 11 11 11 10 9 9 9 9 7 8 8 7 7 7 7 7 7 6 6 5 6 8 12 12 11 10 13 14 13 12 10 11 11 10
9 10 11 11 12 12 11 10 10 11 10 10 9 9 9 8 7 8 7 8 7 5 6 7 7 7 7 4 3 6 7 7 6 7 9 9 8 8 9 9 8 8 8
9 9 10 11 11 11 11 10 10 10 10 9 9 8 7 7 7 7 8 10 10 7 8 10 10 9 9 8 7 7 9 9 6 7 11 10 10 9 9 9 8 8 8
Wind_Direction
137 139 142 138 132 126 123 120 111 110 126 125 129 126 120 115 104 95 90 94 90 93 65 66 88 359 48 11 331 287 233 261 289 263 243 218 218 227 230 233 244 232 230
150 152 152 150 145 138 130 131 130 124 136 105 98 99 103 115 97 92 91 86 85 80 100 53 57 58 72 60 16 342 313 339 331 298 276 239 194 194 205 221 228 245 240
164 162 161 160 155 148 144 131 126 126 113 121 134 137 146 163 145 131 116 88 83 76 49 60 27 20 348 58 18 345 338 330 333 337 308 293 279 175 161 190 206 240 249
172 169 168 168 165 157 149 139 138 132 127 147 140 161 166 138 108 118 101 109 95 83 78 62 52 8 20 44 331 41 326 305 295 236 322 326 339 304 247 188 177 195 234
177 175 174 172 169 162 155 147 142 139 136 135 137 167 143 127 133 130 115 133 111 96 82 73 61 33 20 30 10 7 334 318 317 318 309 286 254 266 284 282 264 233 230
179 177 175 173 171 168 162 154 148 145 146 148 138 141 122 130 135 144 137 161 131 120 93 86 54 6 21 26 359 337 329 340 337 318 311 300 296 296 289 280 271 269 265
180 179 178 177 176 175 171 164 159 156 157 156 151 148 145 155 160 172 143 177 144 131 97 49 24 10 18 343 338 321 338 326 319 302 306 309 306 311 302 295 293 288 272
181 181 182 180 179 179 176 173 166 164 165 163 158 158 169 182 151 147 154 147 72 73 81 54 15 356 326 315 327 290 300 309 297 301 312 298 298 302 296 296 298 288 274
181 182 182 181 180 180 179 176 170 168 169 168 165 167 173 170 136 157 202 162 126 133 131 167 291 328 324 318 292 319 308 296 283 284 263 278 292 278 285 286 288 294 294
181 182 181 181 180 179 176 174 172 171 171 173 180 167 171 173 179 200 159 134 158 140 205 241 249 256 266 272 283 272 281 280 279 293 311 300 293 300 284 281 278 278 287
180 180 180 179 179 176 173 174 174 174 176 180 179 172 176 176 183 190 184 185 195 193 222 237 252 258 261 272 281 294 287 280 285 282 279 281 299 295 292 278 273 270 272
179 177 176 175 178 177 174 175 176 178 179 180 182 182 178 183 191 187 186 191 201 217 215 233 245 257 261 270 277 283 291 289 288 289 291 287 282 281 280 286 282 278 279
177 173 173 176 178 177 177 176 179 180 180 179 185 185 186 186 194 192 190 199 208 222 227 233 246 260 269 270 276 281 284 287 289 290 288 288 287 281 283 282 280 279 272
177 175 174 177 178 177 179 179 181 179 180 182 187 187 191 191 193 194 197 203 212 221 229 239 248 256 262 264 271 274 277 281 284 283 283 282 282 282 285 275 269 273 279
180 180 178 177 177 178 180 181 181 179 181 185 190 189 192 192 197 198 202 207 216 223 224 235 240 248 250 260 288 287 276 277 279 277 273 273 277 298 287 291 295 287 277
185 184 182 179 180 180 181 179 181 180 182 189 193 190 192 193 199 203 206 209 218 230 235 241 246 251 260 105 296 286 290 284 278 279 279 273 240 235 231 245 261 275 278
187 185 184 183 182 182 181 180 180 179 184 190 192 189 194 197 200 206 208 214 220 226 235 242 247 252 232 181 223 251 276 279 281 281 280 280 284 262 265 240 228 240 241
187 185 184 182 181 179 178 180 177 179 185 190 192 192 196 199 200 207 213 219 226 232 236 243 248 254 238 195 221 241 256 268 274 274 274 276 281 282 284 281 275 271 257
185 182 183 179 177 177 175 176 178 182 188 192 193 194 197 200 203 209 214 221 228 234 237 238 244 251 243 204 214 237 263 262 268 270 270 271 273 270 257 270 274 276 275
176 175 175 173 173 174 173 178 182 185 192 192 193 193 196 202 207 210 216 221 229 238 244 240 243 249 254 209 205 223 261 270 272 266 259 241 245 260 231 262 271 275 280
165 166 167 170 170 169 172 181 184 188 191 189 189 192 195 202 208 210 215 224 232 238 247 253 251 248 252 228 211 217 253 274 277 279 275 264 192 222 233 249 264 273 286
160 163 164 166 165 168 174 181 186 186 184 185 187 190 196 205 201 206 216 225 234 235 237 242 251 248 237 235 218 210 227 260 273 276 281 285 187 225 239 243 253 261 268
159 163 162 160 163 171 178 181 181 178 179 182 187 192 196 205 211 212 216 222 225 241 245 243 250 255 253 224 206 213 223 231 247 269 284 289 262 253 248 238 240 246 249
156 160 161 161 164 171 179 181 173 174 178 184 188 193 200 206 209 223 228 233 236 240 248 255 261 265 262 263 241 224 220 221 233 252 256 238 240 244 261 261 232 234 248
155 161 163 164 165 169 175 176 168 171 181 188 192 199 205 213 218 221 236 244 246 258 266 273 277 278 277 302 345 301 289 292 303 298 272 268 261 253 250 251 253 254 250
151 158 161 162 162 166 170 170 168 176 186 192 198 205 210 208 220 225 226 221 237 234 229 243 263 277 274 283 283 271 270 274 278 273 267 268 268 270 271 270 265 257 255